Vertical_Velocity
-4 1 3 4 4 -1 6 0 0 0 5 15 -0 0 -3 0 -2 5 0 -0 -0 -2 -0 0 1 -3 -1 0 -3 -2 -5 -3 -1 -13 -1 -1 -1 -3 -4 -1 -5 -1 -3 -30
7 -3 1 5 -1 -1 1 -3 -0 -1 5 2 0 0 -1 1 3 -1 1 -0 -2 -0 -1 -2 0 -0 2 2 -0 -1 -2 -3 -2 -7 -8 -2 0 -1 -1 -0 -1 -9 0 -23
-5 -3 5 4 1 -4 -0 0 -1 1 -0 -1 1 0 1 3 -2 1 1 0 0 2 1 0 -2 0 1 0 0 0 1 0 -3 -7 -6 -4 1 1 0 1 6 -6 -13 -13
7 -6 2 11 1 6 -2 -0 -0 2 1 0 -0 -1 -0 0 -0 -1 -1 0 -0 0 1 1 -0 -1 -4 -1 -0 -1 -1 1 3 -4 -1 1 0 0 -0 2 -8 4 -25 -0
-6 8 0 5 6 -2 -5 -5 -0 -1 0 -0 -1 -0 1 -0 1 -2 0 -1 0 -1 -1 2 1 0 0 3 -4 -1 -1 -3 0 -7 -1 1 0 -1 0 0 -2 1 3 -14
-4 6 -1 7 9 -0 -5 -3 1 -3 2 1 -1 1 2 3 -1 0 1 -1 -1 -0 2 -1 -2 -3 -2 -1 0 -0 1 1 -1 -2 -0 -1 -1 -4 -2 -1 -0 6 6 5
0 -4 4 6 9 2 -2 -1 -4 -1 -1 -1 -2 -0 -2 -1 -1 -1 1 -0 -1 -1 -3 -1 0 3 1 3 -3 0 0 0 0 -1 -1 2 0 0 1 -2 3 -0 -4 -1
3 6 -2 9 13 9 1 -2 -1 -3 -1 -1 2 2 -1 3 -1 1 -2 -1 -3 -3 2 -1 -3 -2 0 -3 -1 1 2 1 -0 2 -0 -5 -2 -2 -1 -0 3 3 2 -1
12 2 2 8 8 17 5 1 2 -6 -7 -7 2 -1 -2 -1 -0 2 1 -2 2 1 -1 1 -1 -1 -1 -2 0 0 2 2 5 1 2 -1 1 -2 5 -0 0 2 2 -0
-4 -11 -3 2 4 11 11 1 1 1 -1 -1 -2 -3 -4 1 1 -1 1 0 4 5 0 1 -1 -2 -2 -1 0 0 1 1 1 -1 -0 -4 0 -0 3 -9 -6 0 2 1
7 -5 -3 -8 -2 4 2 -3 5 1 -1 -4 -1 1 -2 -1 1 -2 1 -3 2 2 2 -0 -2 0 -2 -0 -2 -3 -3 -2 -1 2 0 -3 -2 -1 -8 -3 -6 0 -3 -3
4 4 11 0 -9 4 5 8 12 2 -7 -2 -5 -5 -9 -2 6 -2 1 -1 -2 -3 -0 -0 -1 0 -0 -2 -3 0 -4 -6 -4 -4 -6 1 1 -2 3 2 4 -4 2 -2
2 5 4 1 3 -3 -1 1 -2 -0 4 -9 2 -8 -2 -1 -5 -0 -2 1 -1 -1 -2 -4 -1 -1 -3 -2 -4 -1 -1 0 -0 -5 -7 -0 -6 -12 1 3 1 2 -2 2
-1 -5 -0 1 -3 5 -1 -0 -3 2 -2 0 -3 -3 -0 0 1 4 5 5 1 2 -0 -1 -1 -1 -0 -2 -1 -1 -8 -0 -2 -3 -5 -3 -6 4 -1 -3 -0 -0 4 2
3 3 5 3 3 4 -0 2 -6 -5 -5 -2 -2 -4 -2 -1 0 1 2 8 3 0 2 1 -2 -0 0 -0 0 -1 -3 -5 -3 -7 -4 4 -10 8 0 -3 -1 0 -2 -4
1 2 2 -0 -2 5 -1 3 -4 4 7 -1 -3 -1 1 2 0 1 4 1 8 2 -1 -0 1 -2 -2 -1 -1 -15 4 -2 4 -8 -3 2 1 2 3 0 1 3 1 3
1 2 9 -1 3 5 -1 0 1 -0 11 -6 -3 -3 0 1 2 3 3 1 4 0 -1 -0 -0 -1 -1 -0 -1 -19 2 2 -0 -0 2 -1 0 -5 -3 -1 -2 -0 2 3
0 -2 7 1 -1 -1 1 -1 -2 -2 1 1 -1 -6 0 1 1 -0 0 1 -1 1 1 1 -0 -0 1 -0 -5 -0 -0 -0 1 1 -0 0 0 0 -1 0 -1 -4 -1 1
2 3 -0 -3 -2 -1 -1 -3 -1 -2 -2 -0 -1 -3 -4 0 -0 1 -0 -1 0 -1 0 -1 -1 0 -3 -6 0 1 0 -0 -1 -0 1 2 -0 -1 -1 -1 1 1 -1 -1
0 3 -0 0 -1 -3 4 12 4 2 4 2 -1 2 -4 -1 -0 2 -1 1 -1 -1 -7 1 2 -3 2 1 1 0 0 0 -0 -2 -1 -0 1 -2 -2 -1 1 2 2 -0
-0 -1 -1 -0 1 -3 -0 0 -1 -0 -2 1 0 1 -2 0 -4 -2 -1 -2 -1 -0 -10 -5 -1 -2 -0 0 1 1 1 0 0 -0 -0 -1 -1 -2 -3 -2 1 2 1 -2
0 -0 -1 -2 0 -1 -3 -1 -3 1 -3 0 0 0 -2 1 1 -2 1 -2 0 -3 -1 -1 -0 -4 1 1 1 0 0 1 1 0 0 0 0 0 0 1 0 -0 -0 -1
-0 -3 -1 -1 1 -3 -3 -2 -4 -1 -0 -1 1 -2 1 1 1 1 1 4 -3 -1 -0 -3 -3 1 1 -1 -1 -1 -1 -0 -0 1 1 1 -0 2 2 -1 2 -2 -1 3
1 -2 0 -5 -3 -2 -2 -2 -2 1 0 -0 -0 -0 -1 0 1 -0 3 -1 -0 2 -0 -3 -2 0 0 0 0 -0 -0 1 -1 -1 -2 -0 -0 -1 1 2 1 -1 -4 0
1 1 -2 0 0 1 0 -0 -0 -0 -0 0 0 -1 2 -0 1 -0 -0 2 -0 -0 -2 -1 -0 0 0 -0 -0 -1 -1 -1 -2 -0 -2 -1 0 -1 -3 2 1 0 -1 -2
-1 -1 -1 1 -2 1 0 1 0 -0 -0 -0 1 0 1 -2 1 0 1 1 -1 -0 0 1 -1 -1 -1 -1 -1 -1 -1 -1 -2 0 -1 -1 -0 -1 -5 -3 1 0 -2 -5
-1 -1 0 1 -0 -1 -1 -0 -1 -1 -0 -1 -1 -1 -8 -4 -2 -1 -0 -1 0 0 -3 -1 2 -0 -2 -1 -1 -0 -0 -1 -1 -2 -0 -2 -0 -0 -2 -8 2 -1 -1 -2
Height
1467 1469 1472 1473 1472 1476 1477 1480 1485 1484 1487 1490 1482 1479 1481 1483 1483 1486 1486 1489 1489 1490 1489 1493 1495 1490 1486 1480 1482 1490 1488 1495 1503 1496 1491 1491 1491 1491 1493 1501 1500 1511 1519 1451
1466 1468 1470 1470 1472 1474 1476 1479 1482 1482 1482 1477 1474 1476 1477 1479 1480 1482 1483 1485 1484 1486 1487 1489 1486 1485 1482 1482 1483 1487 1487 1490 1499 1489 1495 1493 1492 1490 1486 1486 1489 1476 1503 1442
1464 1466 1468 1469 1471 1473 1476 1478 1481 1481 1480 1479 1478 1475 1478 1477 1484 1483 1485 1484 1484 1482 1483 1483 1481 1482 1484 1484 1485 1487 1486 1486 1484 1472 1478 1481 1487 1485 1484 1484 1480 1474 1457 1458
1462 1464 1466 1469 1469 1471 1475 1476 1478 1479 1478 1480 1479 1480 1482 1481 1485 1485 1486 1486 1486 1487 1485 1482 1479 1487 1487 1488 1490 1488 1489 1479 1480 1467 1473 1477 1478 1477 1479 1479 1473 1475 1443 1461
1457 1461 1464 1465 1467 1470 1472 1476 1478 1479 1479 1480 1481 1481 1482 1484 1485 1487 1488 1488 1490 1490 1493 1494 1492 1496 1495 1493 1493 1493 1495 1480 1486 1470 1472 1478 1475 1472 1474 1473 1469 1464 1462 1452
1453 1457 1461 1462 1465 1468 1470 1475 1476 1478 1480 1482 1483 1484 1484 1485 1487 1490 1490 1491 1491 1493 1495 1495 1495 1494 1495 1494 1496 1495 1495 1491 1489 1483 1481 1485 1478 1463 1461 1459 1461 1465 1457 1470
1449 1452 1456 1459 1461 1464 1469 1471 1475 1478 1482 1481 1482 1483 1486 1487 1488 1489 1490 1491 1491 1496 1494 1493 1492 1491 1491 1492 1492 1495 1492 1491 1489 1484 1487 1479 1463 1468 1467 1473 1481 1478 1475 1472
1443 1448 1452 1457 1459 1461 1465 1469 1473 1475 1479 1479 1480 1481 1483 1485 1487 1489 1490 1490 1492 1492 1495 1496 1495 1492 1490 1484 1486 1488 1491 1491 1487 1482 1477 1465 1463 1479 1478 1477 1480 1480 1476 1470
1441 1444 1448 1453 1456 1459 1461 1466 1470 1474 1476 1478 1477 1478 1483 1483 1485 1486 1488 1489 1490 1491 1494 1496 1497 1492 1486 1485 1483 1483 1486 1487 1487 1484 1477 1474 1477 1477 1473 1473 1469 1472 1473 1470
1439 1442 1445 1449 1452 1457 1460 1463 1468 1471 1474 1473 1475 1477 1478 1479 1482 1485 1485 1487 1489 1489 1490 1495 1495 1496 1486 1490 1483 1484 1483 1482 1481 1476 1472 1473 1475 1472 1468 1478 1475 1467 1467 1467
1439 1440 1443 1447 1451 1455 1458 1461 1465 1468 1470 1472 1473 1474 1477 1478 1479 1482 1485 1487 1486 1487 1489 1495 1491 1489 1487 1488 1485 1483 1484 1484 1483 1483 1484 1481 1472 1472 1478 1477 1472 1469 1466 1464
1438 1440 1441 1443 1448 1452 1455 1459 1461 1464 1467 1469 1470 1472 1475 1477 1479 1480 1481 1479 1482 1484 1485 1490 1490 1490 1495 1491 1491 1480 1487 1477 1477 1475 1470 1467 1468 1470 1471 1470 1468 1465 1463 1460
1436 1439 1440 1442 1445 1449 1453 1456 1459 1463 1464 1467 1467 1467 1471 1472 1472 1477 1478 1478 1479 1478 1479 1483 1487 1491 1488 1491 1488 1484 1475 1473 1476 1472 1465 1466 1468 1467 1467 1467 1464 1462 1459 1456
1435 1438 1440 1442 1445 1447 1450 1452 1456 1461 1464 1465 1463 1463 1465 1465 1466 1469 1471 1473 1473 1475 1478 1479 1480 1485 1481 1486 1482 1483 1472 1473 1474 1471 1464 1466 1465 1464 1464 1462 1460 1456 1453 1449
1433 1435 1438 1441 1444 1446 1449 1452 1454 1458 1464 1462 1461 1461 1461 1461 1461 1462 1464 1468 1469 1471 1475 1474 1478 1477 1481 1482 1483 1476 1462 1467 1471 1469 1461 1464 1460 1459 1458 1456 1453 1450 1446 1442
1433 1435 1438 1440 1443 1446 1450 1451 1454 1456 1459 1461 1461 1459 1456 1456 1457 1459 1461 1463 1466 1467 1468 1470 1471 1472 1474 1482 1484 1453 1456 1459 1460 1459 1459 1456 1454 1454 1452 1450 1447 1445 1442 1440
1434 1436 1438 1440 1444 1446 1449 1450 1451 1453 1457 1459 1461 1456 1455 1454 1456 1458 1460 1462 1464 1466 1467 1468 1469 1470 1472 1478 1474 1442 1453 1454 1455 1455 1454 1451 1450 1450 1450 1446 1444 1441 1438 1436
1437 1438 1440 1442 1444 1447 1449 1449 1451 1454 1457 1458 1459 1456 1455 1453 1455 1458 1459 1460 1463 1464 1464 1465 1465 1467 1467 1466 1449 1449 1449 1450 1451 1450 1450 1449 1447 1445 1445 1443 1440 1437 1435 1431
1439 1441 1443 1445 1447 1448 1448 1450 1451 1453 1458 1454 1454 1457 1457 1453 1455 1456 1458 1460 1463 1463 1462 1462 1462 1463 1459 1448 1447 1447 1448 1448 1448 1448 1448 1445 1444 1442 1442 1440 1438 1436 1432 1429
1440 1443 1444 1445 1447 1448 1450 1451 1452 1452 1450 1450 1449 1448 1452 1453 1455 1456 1459 1459 1461 1462 1457 1456 1456 1452 1446 1446 1447 1447 1447 1446 1446 1445 1444 1442 1441 1440 1440 1439 1438 1435 1432 1428
1441 1443 1444 1446 1448 1449 1450 1450 1451 1450 1450 1447 1447 1447 1448 1450 1453 1454 1455 1457 1459 1464 1453 1453 1451 1448 1447 1447 1447 1447 1446 1446 1445 1444 1443 1442 1441 1440 1439 1437 1435 1432 1430 1427
1441 1443 1445 1447 1448 1449 1452 1452 1452 1450 1449 1447 1447 1448 1449 1449 1449 1450 1453 1454 1454 1453 1447 1450 1452 1451 1448 1447 1447 1447 1447 1446 1445 1444 1443 1442 1440 1439 1437 1435 1432 1430 1428 1425
1441 1443 1444 1445 1448 1453 1456 1462 1455 1452 1447 1447 1447 1448 1448 1448 1449 1448 1448 1445 1445 1444 1447 1444 1453 1449 1449 1449 1448 1448 1446 1445 1444 1442 1441 1439 1437 1436 1433 1431 1429 1427 1425 1423
1439 1440 1442 1444 1452 1448 1446 1447 1447 1448 1447 1447 1447 1447 1447 1446 1447 1444 1441 1438 1441 1442 1451 1453 1452 1450 1449 1448 1447 1446 1444 1442 1440 1438 1437 1435 1433 1430 1429 1427 1424 1421 1419 1417
1437 1437 1439 1442 1443 1443 1444 1445 1446 1447 1447 1447 1447 1447 1447 1446 1444 1442 1440 1439 1439 1447 1454 1452 1450 1450 1449 1447 1445 1443 1441 1439 1436 1434 1432 1430 1427 1424 1421 1421 1418 1416 1413 1411
1436 1438 1441 1442 1443 1445 1445 1445 1446 1446 1446 1446 1447 1446 1446 1447 1444 1443 1442 1444 1448 1451 1451 1451 1449 1448 1446 1444 1441 1439 1436 1434 1431 1429 1426 1424 1421 1418 1414 1412 1410 1409 1406 1403
1437 1439 1440 1441 1441 1443 1445 1445 1445 1445 1446 1446 1447 1450 1447 1449 1449 1448 1450 1452 1450 1451 1450 1448 1447 1444 1441 1439 1436 1433 1430 1427 1425 1422 1420 1417 1414 1411 1407 1403 1402 1399 1397 1395